FW6550 Weather Reports


time (UTC)temp
F
wind
direction
speed
knots
gust
knots
rain 1hr
in
rain 24hr
in
rain mn
in
humidity
%
barometer
mb
20260901150039 91 0 0.0 1.7 0.00 0.00 0.00 63 1019.8
20260901145519 92 17 0.0 2.6 0.00 0.00 0.00 63 1019.8
20260901145022 92 0 0.0 2.6 0.00 0.00 0.00 64 1019.9
20260901144547 92 34 0.0 2.6 0.00 0.00 0.00 65 1019.9
20260901144020 91 0 0.0 2.6 0.00 0.00 0.00 65 1019.9
20260901143521 91 34 0.0 2.6 0.00 0.00 0.00 66 1019.9
20260901143046 91 0 0.0 1.7 0.00 0.00 0.00 66 1020.0
20260901142518 90 0 0.0 0.9 0.00 0.00 0.00 67 1020.0
20260901142020 90 0 0.0 0.9 0.00 0.00 0.00 67 1019.9
20260901141543 89 0 0.0 1.7 0.00 0.00 0.00 67 1019.9
20260901141017 89 0 0.0 1.7 0.00 0.00 0.00 69 1020.0
20260901140523 88 0 0.0 2.6 0.00 0.00 0.00 71 1020.0
20260901140040 88 0 0.0 2.6 0.00 0.00 0.00 70 1019.9
20260901135522 88 28 0.0 1.7 0.00 0.00 0.00 70 1019.9
20260901135024 87 27 0.0 0.9 0.00 0.00 0.00 72 1019.8
20260901134542 86 0 0.0 0.9 0.00 0.00 0.00 72 1019.7
20260901134017 86 0 0.0 0.9 0.00 0.00 0.00 72 1019.9
20260901133520 85 0 0.0 3.5 0.00 0.00 0.00 74 1019.8
20260901133042 84 0 0.0 3.5 0.00 0.00 0.00 74 1019.8
20260901132521 83 0 0.0 1.7 0.00 0.00 0.00 74 1019.9
20260901132018 82 0 0.0 0.9 0.00 0.00 0.00 73 1019.9
20260901131541 81 0 0.0 0.9 0.00 0.00 0.00 71 1020.0
20260901131021 80 0 0.0 1.7 0.00 0.00 0.00 68 1020.1
20260901130521 79 0 0.0 1.7 0.00 0.00 0.00 65 1020.1
20260901130052 78 0 0.0 0.9 0.00 0.00 0.00 56 1019.9
20260901125518 77 0 0.0 0.9 0.00 0.00 0.00 49 1019.9
20260901125022 77 0 0.0 0.9 0.00 0.00 0.00 38 1019.8
20260901124541 77 0 0.0 0.0 0.00 0.00 0.00 30 1019.9
20260901124023 76 0 0.0 0.0 0.00 0.00 0.00 28 1019.7
20260901123520 76 0 0.0 0.0 0.00 0.00 0.00 25 1019.7
20260901123043 76 0 0.0 0.0 0.00 0.00 0.00 24 1019.8
20260901122519 75 0 0.0 0.0 0.00 0.00 0.00 22 1019.7
20260901122022 75 0 0.0 0.0 0.00 0.00 0.00 20 1019.7
20260901121539 75 0 0.0 0.0 0.00 0.00 0.00 24 1019.6
20260901121021 75 0 0.0 0.0 0.00 0.00 0.00 23 1019.4
20260901120521 75 0 0.0 0.0 0.00 0.00 0.00 21 1019.3
20260901120036 75 0 0.0 0.0 0.00 0.00 0.00 22 1019.4
20260901115520 75 0 0.0 0.0 0.00 0.00 0.00 24 1019.4
20260901115020 75 0 0.0 0.0 0.00 0.00 0.00 25 1019.2
20260901114537 75 0 0.0 0.0 0.00 0.00 0.00 26 1019.2
20260901114017 75 0 0.0 0.0 0.00 0.00 0.00 30 1019.1
20260901113518 75 0 0.0 0.0 0.00 0.00 0.00 30 1019.0
20260901113040 75 0 0.0 0.0 0.00 0.00 0.00 32 1018.9
20260901112519 75 0 0.0 0.0 0.00 0.00 0.00 32 1018.8
20260901112024 75 0 0.0 0.0 0.00 0.00 0.00 32 1018.8
20260901111539 75 0 0.0 0.0 0.00 0.00 0.00 34 1018.7
20260901111019 75 0 0.0 0.0 0.00 0.00 0.00 33 1018.7
20260901110521 75 0 0.0 0.0 0.00 0.00 0.00 34 1018.7
20260901110041 75 0 0.0 0.0 0.00 0.00 0.00 37 1018.6
20260901105517 75 0 0.0 0.0 0.00 0.00 0.00 37 1018.7
20260901105020 75 0 0.0 0.0 0.00 0.00 0.00 40 1018.7
20260901104541 75 0 0.0 0.0 0.00 0.00 0.00 38 1018.6
20260901104017 75 0 0.0 0.0 0.00 0.00 0.00 40 1018.5
20260901103517 75 0 0.0 0.0 0.00 0.00 0.00 39 1018.5
20260901103038 75 0 0.0 0.0 0.00 0.00 0.00 41 1018.4
20260901102521 75 0 0.0 0.0 0.00 0.00 0.00 43 1018.4
20260901102018 75 0 0.0 0.0 0.00 0.00 0.00 46 1018.5
20260901101543 75 0 0.0 0.0 0.00 0.00 0.00 43 1018.4
20260901101017 75 0 0.0 0.0 0.00 0.00 0.00 45 1018.4
20260901100519 75 0 0.0 0.0 0.00 0.00 0.00 45 1018.4
20260901100045 76 0 0.0 0.0 0.00 0.00 0.00 46 1018.4
20260901095521 76 0 0.0 0.0 0.00 0.00 0.00 47 1018.4
20260901095020 76 0 0.0 0.0 0.00 0.00 0.00 48 1018.4
20260901094538 76 0 0.0 0.0 0.00 0.00 0.00 48 1018.4
20260901094019 76 0 0.0 0.0 0.00 0.00 0.00 47 1018.4
20260901093521 76 0 0.0 0.0 0.00 0.00 0.00 48 1018.5
20260901093042 76 0 0.0 0.0 0.00 0.00 0.00 51 1018.4
20260901092521 76 0 0.0 0.0 0.00 0.00 0.00 53 1018.4
20260901092019 76 0 0.0 0.0 0.00 0.00 0.00 51 1018.3
20260901091541 76 0 0.0 0.0 0.00 0.00 0.00 52 1018.4
20260901091018 76 0 0.0 0.0 0.00 0.00 0.00 51 1018.2
20260901090518 76 0 0.0 0.0 0.00 0.00 0.00 53 1018.3
20260901090045 76 0 0.0 0.0 0.00 0.00 0.00 58 1018.1
20260901085524 76 0 0.0 0.0 0.00 0.00 0.00 57 1017.9
20260901085024 76 0 0.0 0.0 0.00 0.00 0.00 57 1017.9
20260901084558 76 0 0.0 0.0 0.00 0.00 0.00 57 1017.8
20260901084024 77 0 0.0 0.0 0.00 0.00 0.00 57 1018.1
20260901083522 77 0 0.0 0.0 0.00 0.00 0.00 58 1017.9
20260901083048 77 0 0.0 0.0 0.00 0.00 0.00 61 1018.1
20260901082518 77 0 0.0 0.0 0.00 0.00 0.00 63 1018.0
20260901082017 77 0 0.0 0.0 0.00 0.00 0.00 62 1017.9
20260901081540 77 0 0.0 0.0 0.00 0.00 0.00 62 1017.9
20260901081017 77 0 0.0 0.0 0.00 0.00 0.00 64 1017.8
20260901080518 77 0 0.0 0.0 0.00 0.00 0.00 65 1017.7
20260901080041 77 0 0.0 0.0 0.00 0.00 0.00 66 1017.7
20260901075525 77 0 0.0 0.0 0.00 0.00 0.00 66 1017.7
20260901075025 77 0 0.0 0.0 0.00 0.00 0.00 68 1017.7
20260901074541 77 0 0.0 0.0 0.00 0.00 0.00 69 1017.6
20260901074023 78 0 0.0 0.0 0.00 0.00 0.00 68 1017.7
20260901073520 78 0 0.0 0.0 0.00 0.00 0.00 69 1017.7
20260901073043 78 0 0.0 0.0 0.00 0.00 0.00 69 1017.7
20260901072520 78 0 0.0 0.0 0.00 0.00 0.00 69 1017.6
20260901072018 78 0 0.0 0.0 0.00 0.00 0.00 70 1017.6
20260901071541 78 0 0.0 0.0 0.00 0.00 0.00 70 1017.6
20260901071019 78 0 0.0 0.0 0.00 0.00 0.00 70 1017.7
20260901070523 78 0 0.0 0.0 0.00 0.00 0.00 70 1017.7
20260901070040 78 0 0.0 0.0 0.00 0.00 0.00 70 1017.6
20260901065523 78 0 0.0 0.0 0.00 0.00 0.00 70 1017.6
20260901065023 78 0 0.0 0.0 0.00 0.00 0.00 70 1017.6
20260901064543 78 0 0.0 0.0 0.00 0.00 0.00 71 1017.6
20260901064021 78 0 0.0 0.0 0.00 0.00 0.00 71 1017.7
20260901063517 78 0 0.0 0.0 0.00 0.00 0.00 72 1017.7
20260901063042 78 0 0.0 0.0 0.00 0.00 0.00 72 1017.7
20260901062520 79 0 0.0 0.0 0.00 0.00 0.00 72 1017.7
20260901062025 79 0 0.0 0.0 0.00 0.00 0.00 72 1017.8
20260901061549 79 0 0.0 0.0 0.00 0.00 0.00 72 1017.7
20260901061024 79 0 0.0 0.0 0.00 0.00 0.00 73 1017.7
20260901060525 79 0 0.0 0.0 0.00 0.00 0.00 73 1017.9
20260901060047 79 0 0.0 0.0 0.00 0.00 0.00 74 1017.8
20260901055523 79 0 0.0 0.0 0.00 0.00 0.00 74 1017.8
20260901055019 79 0 0.0 0.0 0.00 0.00 0.00 74 1017.8
20260901054540 79 0 0.0 0.0 0.00 0.00 0.00 74 1017.9
20260901054020 80 0 0.0 0.0 0.00 0.00 0.00 74 1017.8
20260901053518 80 0 0.0 0.9 0.00 0.00 0.00 74 1017.9
20260901053056 80 0 0.0 0.9 0.00 0.00 0.00 74 1017.8
20260901052527 80 0 0.0 0.9 0.00 0.00 0.00 74 1017.9
20260901052023 80 0 0.0 0.0 0.00 0.00 0.00 74 1018.0
20260901051542 80 0 0.0 0.0 0.00 0.00 0.00 74 1017.7
20260901051019 80 0 0.0 0.0 0.00 0.00 0.00 74 1017.8
20260901050518 80 0 0.0 0.0 0.00 0.00 0.00 74 1017.7
20260901050041 80 0 0.0 0.0 0.00 0.00 0.00 74 1017.7
20260901045518 81 0 0.0 0.0 0.00 0.00 0.00 74 1017.8
20260901045017 81 0 0.0 0.0 0.00 0.00 0.00 74 1017.8
20260901044542 81 0 0.0 0.0 0.00 0.00 0.00 74 1017.6
20260901044020 81 0 0.0 0.0 0.00 0.00 0.00 74 1017.6
20260901043517 81 0 0.0 0.9 0.00 0.00 0.00 74 1017.8
20260901043044 81 0 0.0 0.9 0.00 0.00 0.00 74 1017.7
20260901042522 81 0 0.0 0.9 0.00 0.00 0.00 74 1017.5
20260901042017 81 0 0.0 0.9 0.00 0.00 0.00 74 1017.7
20260901041542 81 0 0.0 0.0 0.00 0.00 0.00 73 1017.7
20260901041019 81 0 0.0 0.0 0.00 0.00 0.00 73 1017.8
20260901040518 82 0 0.0 0.0 0.00 0.00 0.00 73 1017.9
20260901040043 82 0 0.0 0.0 0.00 0.00 0.00 73 1018.0
20260901035521 82 0 0.0 0.9 0.00 0.00 0.00 73 1018.0
20260901035024 82 0 0.0 0.9 0.00 0.00 0.00 73 1018.0
20260901034541 82 0 0.0 0.9 0.00 0.00 0.00 73 1017.8
20260901034022 82 0 0.0 0.9 0.00 0.00 0.00 73 1018.0
20260901033518 82 0 0.0 0.9 0.00 0.00 0.00 73 1018.0
20260901033047 82 0 0.0 0.0 0.00 0.00 0.00 73 1018.0
20260901032520 82 0 0.0 0.0 0.00 0.00 0.00 72 1018.0
20260901032021 83 0 0.0 0.0 0.00 0.00 0.00 72 1018.1
20260901031553 83 0 0.0 0.0 0.00 0.00 0.00 72 1018.1
20260901031030 83 0 0.0 0.9 0.00 0.00 0.00 71 1018.1
20260901030519 83 0 0.0 1.7 0.00 0.00 0.00 72 1018.2
20260901030042 83 0 0.0 1.7 0.00 0.00 0.00 72 1018.0
20260901025521 83 0 0.0 1.7 0.00 0.00 0.00 71 1018.0
20260901025020 83 0 0.0 0.9 0.00 0.00 0.00 71 1018.2
20260901024541 83 0 0.0 0.9 0.00 0.00 0.00 71 1018.1
20260901024019 83 0 0.0 0.9 0.00 0.00 0.00 71 1018.2
20260901023522 83 0 0.0 0.0 0.00 0.00 0.00 71 1018.2
20260901023043 83 0 0.0 0.9 0.00 0.00 0.00 71 1018.2
20260901022528 83 0 0.0 0.9 0.00 0.00 0.00 71 1018.2
20260901022023 83 0 0.0 0.9 0.00 0.00 0.00 70 1018.0
20260901021544 83 0 0.0 0.0 0.00 0.00 0.00 70 1018.3
20260901021018 84 0 0.0 0.0 0.00 0.00 0.00 70 1018.1
20260901020521 84 0 0.0 0.0 0.00 0.00 0.00 70 1018.0
20260901020043 84 0 0.0 0.0 0.00 0.00 0.00 69 1018.1
20260901015520 84 0 0.0 0.0 0.00 0.00 0.00 69 1017.9
20260901015018 85 0 0.0 0.0 0.00 0.00 0.00 69 1017.7
20260901014542 85 0 0.0 0.0 0.00 0.00 0.00 68 1017.8
20260901014029 85 0 0.0 0.0 0.00 0.00 0.00 67 1017.6
20260901013526 85 0 0.0 0.0 0.00 0.00 0.00 67 1017.6
20260901013050 86 0 0.0 0.0 0.00 0.00 0.00 66 1017.5
20260901012518 86 0 0.0 0.0 0.00 0.00 0.00 66 1017.5
20260901012020 86 0 0.0 0.0 0.00 0.00 0.00 65 1017.4
20260901011541 86 0 0.0 0.0 0.00 0.00 0.00 65 1017.3
20260901011020 87 0 0.0 0.0 0.00 0.00 0.00 64 1017.2
20260901010518 87 0 0.0 0.0 0.00 0.00 0.00 64 1017.2
20260901010041 87 0 0.0 0.0 0.00 0.00 0.00 63 1017.3
20260901005518 88 0 0.0 0.0 0.00 0.00 0.00 63 1017.2
20260901005022 88 0 0.0 0.0 0.00 0.00 0.00 62 1017.1
20260901004545 88 0 0.0 0.0 0.00 0.00 0.00 61 1016.9
20260901004018 89 0 0.0 0.0 0.00 0.00 0.00 60 1016.9
20260901003520 89 0 0.0 0.0 0.00 0.00 0.00 59 1017.1
20260901003044 90 0 0.0 0.0 0.00 0.00 0.00 59 1017.0
20260901002522 90 0 0.0 0.0 0.00 0.00 0.00 59 1017.0
20260901002024 90 0 0.0 0.9 0.00 0.00 0.00 57 1017.1
20260901001542 91 0 0.0 0.9 0.00 0.00 0.00 57 1016.8
20260901001021 91 0 0.0 0.9 0.00 0.00 0.00 56 1016.9
20260901000523 91 0 0.0 0.9 0.00 0.00 0.00 56 1017.0
20260901000044 91 0 0.0 0.9 0.00 0.00 0.00 56 1016.8
20260831235520 91 0 0.0 1.7 0.00 0.00 0.00 56 1016.8
20260831235025 91 0 0.0 1.7 0.00 0.00 0.00 56 1016.8
20260831234543 91 0 0.0 1.7 0.00 0.00 0.00 56 1016.8
20260831234026 91 0 0.0 0.9 0.00 0.00 0.00 56 1016.9
20260831233524 91 0 0.0 0.9 0.00 0.00 0.00 58 1016.8
20260831233042 91 0 0.0 0.0 0.00 0.00 0.00 60 1016.7
20260831232519 91 0 0.0 0.0 0.00 0.00 0.00 60 1016.7
20260831232020 91 0 0.0 0.0 0.00 0.00 0.00 60 1016.7
20260831231541 91 0 0.0 0.9 0.00 0.00 0.00 60 1016.9
20260831231020 91 0 0.0 0.9 0.00 0.00 0.00 59 1016.8
20260831230519 91 0 0.0 0.0 0.00 0.00 0.00 57 1016.8
20260831230059 92 0 0.0 0.0 0.00 0.00 0.00 57 1016.9
20260831225521 93 0 0.0 0.0 0.00 0.00 0.00 56 1016.8
20260831225030 93 0 0.0 0.0 0.00 0.00 0.00 54 1017.0
20260831224542 93 0 0.0 0.0 0.00 0.00 0.00 54 1016.9
20260831224020 93 0 0.0 0.9 0.00 0.00 0.00 52 1017.0
20260831223520 93 0 0.0 2.6 0.00 0.00 0.00 52 1017.1
20260831223039 94 30 0.0 2.6 0.00 0.00 0.00 52 1017.1
20260831222521 94 0 0.0 2.6 0.00 0.00 0.00 51 1017.0
20260831222026 94 0 0.0 2.6 0.00 0.00 0.00 50 1017.0
20260831221548 95 0 0.0 3.5 0.00 0.00 0.00 50 1017.1
20260831221024 95 0 0.0 3.5 0.00 0.00 0.00 50 1017.0
20260831220522 95 0 0.9 3.5 0.00 0.00 0.00 50 1017.1
20260831220046 95 0 0.9 3.5 0.00 0.00 0.00 50 1017.0
20260831215522 95 49 0.0 1.7 0.00 0.00 0.00 51 1017.0
20260831215021 94 54 0.0 0.9 0.00 0.00 0.00 51 1017.0
20260831214546 94 54 0.0 2.6 0.00 0.00 0.00 51 1017.1
20260831214023 94 0 0.0 2.6 0.00 0.00 0.00 50 1017.1
20260831213520 94 55 0.0 5.2 0.00 0.00 0.00 51 1017.3
20260831213044 94 0 0.0 5.2 0.00 0.00 0.00 51 1017.2
20260831212527 95 360 0.9 5.2 0.00 0.00 0.00 49 1017.4
20260831212025 95 0 0.9 6.1 0.00 0.00 0.00 50 1017.4
20260831211550 95 29 1.7 7.0 0.00 0.00 0.00 49 1017.4
20260831211021 96 160 2.6 7.0 0.00 0.00 0.00 49 1017.3
20260831210522 96 0 1.7 5.2 0.00 0.00 0.00 49 1017.4
20260831210042 96 0 0.9 2.6 0.00 0.00 0.00 50 1017.4
20260831205520 95 0 0.0 2.6 0.00 0.00 0.00 50 1017.3
20260831205020 95 327 0.9 2.6 0.00 0.00 0.00 48 1017.3
20260831204542 95 0 0.0 2.6 0.00 0.00 0.00 50 1017.5
20260831204026 96 0 0.0 2.6 0.00 0.00 0.00 49 1017.5
20260831203524 96 0 0.0 4.3 0.00 0.00 0.00 49 1017.6
20260831203044 96 53 0.0 4.3 0.00 0.00 0.00 48 1017.6
20260831202522 97 42 0.0 4.3 0.00 0.00 0.00 48 1017.6
20260831202023 97 39 0.0 5.2 0.00 0.00 0.00 49 1017.7
20260831201541 97 261 1.7 5.2 0.00 0.00 0.00 52 1017.6
20260831201021 96 244 0.0 4.3 0.00 0.00 0.00 49 1017.7
20260831200521 96 352 1.7 4.3 0.00 0.00 0.00 49 1017.8
20260831200041 96 325 0.0 4.3 0.00 0.00 0.00 50 1017.9
20260831195519 96 0 0.0 4.3 0.00 0.00 0.00 48 1017.9
20260831195019 97 0 0.9 4.3 0.00 0.00 0.00 48 1018.1
20260831194618 97 0 0.0 3.5 0.00 0.00 0.00 48 1018.0
20260831194027 97 235 0.0 3.5 0.00 0.00 0.00 51 1018.1
20260831193520 97 0 0.9 3.5 0.00 0.00 0.00 48 1018.2
20260831193043 97 0 0.0 3.5 0.00 0.00 0.00 49 1018.3
20260831192519 97 88 0.9 3.5 0.00 0.00 0.00 49 1018.2
20260831192019 96 155 0.9 3.5 0.00 0.00 0.00 52 1018.2
20260831191538 95 0 0.0 4.3 0.00 0.00 0.00 55 1018.4
20260831191020 95 0 0.9 4.3 0.00 0.00 0.00 51 1018.4
20260831190520 96 9 0.0 4.3 0.00 0.00 0.00 48 1018.5
20260831190041 96 0 0.0 3.5 0.00 0.00 0.00 48 1018.6
20260831185518 96 0 0.9 3.5 0.00 0.00 0.00 50 1018.7
20260831185019 96 127 0.0 5.2 0.00 0.00 0.00 52 1018.6
20260831184546 96 0 0.9 5.2 0.00 0.00 0.00 51 1018.8
20260831184021 96 78 0.0 3.5 0.00 0.00 0.00 53 1018.8
20260831183521 96 0 0.0 4.3 0.00 0.00 0.00 53 1018.9
20260831183046 96 0 0.0 5.2 0.00 0.00 0.00 60 1019.1
20260831182518 96 0 0.9 5.2 0.00 0.00 0.00 52 1019.0
20260831182021 96 71 0.9 4.3 0.00 0.00 0.00 56 1019.3
20260831181540 96 346 0.0 4.3 0.00 0.00 0.00 54 1019.3
20260831181020 96 168 0.9 4.3 0.00 0.00 0.00 58 1019.5
20260831180519 96 0 0.0 3.5 0.00 0.00 0.00 53 1019.6
20260831180041 96 0 0.0 3.5 0.00 0.00 0.00 53 1019.6
20260831175523 97 338 0.9 3.5 0.00 0.00 0.00 54 1019.6
20260831175024 97 183 0.9 3.5 0.00 0.00 0.00 55 1019.7
20260831174550 96 210 0.0 4.3 0.00 0.00 0.00 59 1019.7
20260831174023 95 197 1.7 4.3 0.00 0.00 0.00 60 1019.9
20260831173518 94 158 0.9 3.5 0.00 0.00 0.00 59 1019.9
20260831173045 93 0 0.0 3.5 0.00 0.00 0.00 58 1019.9
20260831172520 93 0 0.0 4.3 0.00 0.00 0.00 57 1020.1
20260831172020 93 0 1.7 4.3 0.00 0.00 0.00 55 1020.2
20260831171543 94 92 0.9 3.5 0.00 0.00 0.00 57 1020.2
20260831171021 95 0 0.9 4.3 0.00 0.00 0.00 55 1020.2
20260831170522 95 0 0.0 4.3 0.00 0.00 0.00 60 1020.2
20260831170111 94 162 0.9 4.3 0.00 0.00 0.00 59 1020.3
20260831165522 94 86 0.9 3.5 0.00 0.00 0.00 58 1020.3
20260831165022 94 44 0.9 4.3 0.00 0.00 0.00 56 1020.4
20260831164539 95 131 0.0 4.3 0.00 0.00 0.00 58 1020.4
20260831164018 96 14 0.9 4.3 0.00 0.00 0.00 53 1020.3
20260831163518 96 0 0.0 3.5 0.00 0.00 0.00 58 1020.4
20260831163044 96 208 0.9 3.5 0.00 0.00 0.00 57 1020.5
20260831162523 95 0 0.0 4.3 0.00 0.00 0.00 60 1020.5
20260831162020 95 171 0.0 4.3 0.00 0.00 0.00 57 1020.7
20260831161541 95 113 0.9 4.3 0.00 0.00 0.00 56 1020.8
20260831161023 94 0 0.9 4.3 0.00 0.00 0.00 60 1020.8
20260831160522 94 0 0.0 7.0 0.00 0.00 0.00 58 1020.8
20260831160042 93 194 0.9 7.0 0.00 0.00 0.00 60 1020.9
20260831155521 93 269 1.7 7.0 0.00 0.00 0.00 60 1020.8
20260831155021 93 0 0.0 4.3 0.00 0.00 0.00 61 1020.9
20260831154616 92 44 0.0 4.3 0.00 0.00 0.00 64 1020.9
20260831154018 92 0 0.9 3.5 0.00 0.00 0.00 63 1020.8
20260831153520 91 0 0.0 3.5 0.00 0.00 0.00 65 1020.8
20260831153041 91 26 0.9 3.5 0.00 0.00 0.00 63 1020.8
20260831152522 90 105 0.0 3.5 0.00 0.00 0.00 63 1020.8
20260831152024 90 146 0.0 3.5 0.00 0.00 0.00 63 1020.8
20260831151541 91 328 0.9 2.6 0.00 0.00 0.00 63 1020.7
20260831151021 91 194 0.0 3.5 0.00 0.00 0.00 66 1020.8
20260831150520 90 0 0.0 3.5 0.00 0.00 0.00 66 1020.8